Lansing, MI (48901)

7:43 AM EDT on March 28, 2017 (GMT -0400)
Shaw Estates | | Change Station
Active Advisory: Flood Advisory Active Notice: Flood Advisory

Elev 869 ft 42.73 °N, 84.54 °W | Updated 12 seconds ago

Overcast
Overcast
40.6 °F
Feels Like 41 °F
N
0.0
Wind Variable Wind from NW
Gusts 0.0 mph

Today
High -- | Low -- °F
--% Chance of Precip.
Yesterday
High -- | Low -- °F
Precip. -- in
Pressure 30.00 in
Visibility 2.5 miles
Clouds Mostly Cloudy 500 ft
Overcast 1000 ft
Windchill 41 °F
Dew Point 40 °F
Humidity 97%
Rainfall 0.00 in
Snow Depth Not available.
7:26 AM 8:00 PM
New Moon, 0% visible
SPECI KLAN 281118Z 03005KT 2 1/2SM BR BKN005 OVC010 05/03 A3000
Pressure 30.00 in
Visibility 2.5 miles
Clouds Mostly Cloudy 500 ft
Overcast 1000 ft
Windchill 41 °F
Dew Point 40 °F
Humidity 97%
Rainfall 0.00 in
Snow Depth Not available.
7:26 AM 8:00 PM
New Moon, 0% visible
SPECI KLAN 281118Z 03005KT 2 1/2SM BR BKN005 OVC010 05/03 A3000

Get Your Daily Forecast Email!

Thanks for signing up!

Be on the lookout for a verification email in your inbox.

You'll start receiving severe weather alerts in your inbox..

×

10-Day Weather Forecast

Almanac

Astronomy

Mar. 28, 2017 Rise Set
Actual Time
Civil Twilight
Nautical Twilight
Astronomical Twilight
Moon
Length of Visible Light
Length of Day
Tomorrow will be .
, % of the Moon is Illuminated

Today's Extremes

State Highs State Lows

Community

WunderPhotos

Upload Photos

1,962,540 photos uploaded!

WunderBlog® & News

Nearby

Air Quality

  Air Quality AQ Index Pollutant
Not available.

Snow Depth

Station Depth Elevation

Earthquake Activity

City Distance Mag. Time & Date
Minimum magnitude displayed is 2.5.

Earthquake Activity

City Distance Mag. Time & Date
Minimum magnitude displayed is 2.5.

Coastal Water Temperatures

Place Temperature

Stations

Nearby Weather Stations

Station Location Temp. Windchill Dew Point Humidity Wind Precip. Elev Updated Type
                   

Watches & Warnings

Flood Advisory
Issued: 10:19 PM EDT Mar. 27, 2017 – National Weather Service

The flood advisory continues for
the Sycamore Creek at Holt
* until Thursday morning.
* At 09 PM Sunday the stage was 7.1 feet.
* Bankfull stage is 6.0 feet.
* Flood stage is 8.0 feet.
* Forecast, the river will continue to fall.
* Impact, at 8.0 feet... expect minor flooding of low lying areas
adjacent to the river, in the Lansing Municipal Golf course and
sections of east Mt. Hope Road.


Lat... Lon 4271 8455 4268 8455 4264 8451 4264 8445
      4268 8449 4271 8451